SVR403 USSS-UMKK

Flight info

Callsign SVR403
Flight time 3h 35m
Altitude 36000
Route N0460F360 UMTEK M864 LUNAG N170 PENUS T762 GEBSI M60 ANDAT M60 ATLUM DCT PISIS DCT ARANS DCT PIDIN DCT PISIM DCT PIRUX DCT PIVAX DCT GARSO DCT AGONA DCT TURIP
Aircraft A320/M-VGDW/C

Departure

Time 2026-04-29 10:47
Airport Koltsovo Airport (USSS)

Arrival

Time 2026-04-29 14:23
Airport Khrabrovo Airport (UMKK)
Time Latitude Longitude Altitude Speed Heading
2026-04-29 10:17 56.74925 60.79371 779 ft 0 kts 359°
2026-04-29 10:37 56.74917 60.79372 778 ft 3 kts 359°
2026-04-29 10:37 56.74894 60.79373 778 ft 3 kts 359°
2026-04-29 10:38 56.74874 60.79373 778 ft 3 kts 10°
2026-04-29 10:38 56.74856 60.79360 778 ft 3 kts 66°
2026-04-29 10:38 56.74855 60.79324 778 ft 3 kts 100°
2026-04-29 10:38 56.74857 60.79289 778 ft 0 kts 90°
2026-04-29 10:40 56.74857 60.79297 778 ft 2 kts 90°
2026-04-29 10:41 56.74857 60.79341 778 ft 5 kts 90°
2026-04-29 10:41 56.74857 60.79433 778 ft 9 kts 90°
2026-04-29 10:41 56.74856 60.79574 778 ft 13 kts 90°
2026-04-29 10:41 56.74853 60.79745 778 ft 14 kts 89°
2026-04-29 10:42 56.74854 60.79932 778 ft 15 kts 90°
2026-04-29 10:42 56.74854 60.80063 778 ft 16 kts 90°
2026-04-29 10:42 56.74854 60.80345 778 ft 18 kts 90°
2026-04-29 10:42 56.74854 60.80576 778 ft 19 kts 90°
2026-04-29 10:43 56.74854 60.80741 778 ft 20 kts 90°
2026-04-29 10:43 56.74854 60.80953 778 ft 14 kts 90°
2026-04-29 10:43 56.74863 60.81131 778 ft 15 kts 90°
2026-04-29 10:43 56.74863 60.81326 778 ft 16 kts 90°
2026-04-29 10:44 56.74863 60.81536 778 ft 17 kts 90°
2026-04-29 10:44 56.74862 60.81756 778 ft 17 kts 90°
2026-04-29 10:44 56.74831 60.81958 778 ft 17 kts 116°
2026-04-29 10:44 56.74779 60.82141 778 ft 14 kts 119°
2026-04-29 10:45 56.74703 60.82200 778 ft 13 kts 180°
2026-04-29 10:45 56.74606 60.82201 778 ft 15 kts 180°
2026-04-29 10:45 56.74499 60.82201 778 ft 16 kts 180°
2026-04-29 10:45 56.74380 60.82190 778 ft 18 kts 185°
2026-04-29 10:46 56.74252 60.82172 779 ft 19 kts 184°
2026-04-29 10:46 56.74128 60.82156 779 ft 15 kts 183°
2026-04-29 10:46 56.74066 60.82116 779 ft 8 kts 248°
2026-04-29 10:46 56.74070 60.81975 779 ft 23 kts 274°
2026-04-29 10:47 56.74098 60.81271 778 ft 87 kts 274°
2026-04-29 10:47 56.74155 60.79849 778 ft 135 kts 274°
2026-04-29 10:47 56.74231 60.77967 1068 ft 151 kts 272°
2026-04-29 10:47 56.74299 60.76073 1761 ft 149 kts 269°
2026-04-29 10:48 56.74370 60.74160 2221 ft 157 kts 269°
2026-04-29 10:48 56.74445 60.72025 2418 ft 181 kts 269°
2026-04-29 10:48 56.74528 60.69592 2620 ft 205 kts 269°
2026-04-29 10:48 56.74624 60.66882 2907 ft 228 kts 270°
2026-04-29 10:49 56.74735 60.63873 3449 ft 243 kts 270°
2026-04-29 10:49 56.74916 60.60781 4309 ft 247 kts 274°
2026-04-29 10:49 56.75178 60.57657 5164 ft 251 kts 275°
2026-04-29 10:49 56.75465 60.54500 5992 ft 254 kts 276°
2026-04-29 10:50 56.75754 60.51302 6805 ft 256 kts 275°
2026-04-29 10:50 56.76039 60.48116 7548 ft 260 kts 275°
2026-04-29 10:50 56.76326 60.44799 8276 ft 264 kts 274°
2026-04-29 10:50 56.76606 60.41506 9031 ft 267 kts 274°
2026-04-29 10:51 56.76889 60.38129 9778 ft 271 kts 274°
2026-04-29 10:51 56.77172 60.34699 10333 ft 280 kts 274°
2026-04-29 10:51 56.77465 60.31042 10497 ft 302 kts 274°
2026-04-29 10:51 56.77776 60.27132 10758 ft 318 kts 274°
2026-04-29 10:52 56.78101 60.23104 11350 ft 322 kts 274°
2026-04-29 10:52 56.78432 60.19043 12069 ft 324 kts 273°
2026-04-29 10:52 56.78908 60.15033 12790 ft 330 kts 282°
2026-04-29 10:52 56.79832 60.11157 13511 ft 338 kts 292°
2026-04-29 10:53 56.81041 60.07441 14160 ft 341 kts 293°
2026-04-29 10:53 56.82257 60.03707 14748 ft 344 kts 293°
2026-04-29 10:53 56.83483 59.99930 15297 ft 347 kts 292°
2026-04-29 10:53 56.84699 59.96163 15846 ft 349 kts 292°
2026-04-29 10:54 56.85936 59.92319 16378 ft 352 kts 292°
2026-04-29 10:54 56.87179 59.88447 16926 ft 355 kts 292°
2026-04-29 10:54 56.88435 59.84531 17478 ft 357 kts 292°
2026-04-29 10:54 56.89699 59.80588 18029 ft 360 kts 291°
2026-04-29 10:55 56.90973 59.76604 18568 ft 363 kts 291°
2026-04-29 10:55 56.92253 59.72589 19055 ft 366 kts 291°
2026-04-29 10:55 56.93526 59.68593 19562 ft 369 kts 291°
2026-04-29 10:55 56.94823 59.64514 20077 ft 371 kts 291°
2026-04-29 10:56 56.96129 59.60410 20590 ft 374 kts 291°
2026-04-29 10:56 56.97449 59.56266 21092 ft 377 kts 290°
2026-04-29 10:56 56.98769 59.52102 21643 ft 379 kts 290°
2026-04-29 10:56 57.00096 59.47897 22119 ft 382 kts 290°
2026-04-29 10:57 57.01433 59.43654 22585 ft 384 kts 290°
2026-04-29 10:57 57.02778 59.39380 23042 ft 387 kts 290°
2026-04-29 10:57 57.04112 59.35126 23489 ft 389 kts 289°
2026-04-29 10:57 57.05469 59.30794 23871 ft 392 kts 289°
2026-04-29 10:58 57.06839 59.26424 24231 ft 394 kts 289°
2026-04-29 10:58 57.08211 59.22044 24599 ft 396 kts 289°
2026-04-29 10:58 57.09589 59.17641 24967 ft 398 kts 289°
2026-04-29 10:58 57.10954 59.13271 25323 ft 400 kts 289°
2026-04-29 10:59 57.12337 59.08824 25670 ft 402 kts 289°
2026-04-29 10:59 57.13724 59.04345 26017 ft 404 kts 289°
2026-04-29 10:59 57.15114 58.99838 26370 ft 406 kts 289°
2026-04-29 10:59 57.16516 58.95292 26762 ft 408 kts 289°
2026-04-29 11:00 57.17921 58.90739 27088 ft 410 kts 289°
2026-04-29 11:00 57.19339 58.86135 27422 ft 412 kts 289°
2026-04-29 11:00 57.20757 58.81531 27773 ft 414 kts 289°
2026-04-29 11:00 57.22187 58.76874 28084 ft 416 kts 289°
2026-04-29 11:01 57.23616 58.72205 28394 ft 418 kts 289°
2026-04-29 11:01 57.25051 58.67503 28714 ft 420 kts 289°
2026-04-29 11:01 57.26484 58.62810 29143 ft 418 kts 289°
2026-04-29 11:01 57.27895 58.58192 29579 ft 417 kts 289°
2026-04-29 11:02 57.29317 58.53529 30029 ft 416 kts 288°
2026-04-29 11:02 57.30740 58.48848 30411 ft 416 kts 288°
2026-04-29 11:02 57.32154 58.44167 30819 ft 415 kts 288°
2026-04-29 11:02 57.33567 58.39474 31114 ft 417 kts 289°
2026-04-29 11:03 57.34977 58.34782 31425 ft 417 kts 289°
2026-04-29 11:03 57.36376 58.30129 31764 ft 418 kts 289°
2026-04-29 11:03 57.37792 58.25419 32119 ft 418 kts 289°
2026-04-29 11:03 57.39209 58.20696 32470 ft 418 kts 289°
2026-04-29 11:04 57.40623 58.15978 32807 ft 418 kts 290°
2026-04-29 11:04 57.42032 58.11259 33139 ft 418 kts 290°
2026-04-29 11:04 57.43424 58.06574 33476 ft 418 kts 290°
2026-04-29 11:04 57.44827 58.01842 33814 ft 418 kts 290°
2026-04-29 11:05 57.46228 57.97112 34111 ft 418 kts 290°
2026-04-29 11:05 57.47636 57.92366 34361 ft 418 kts 290°
2026-04-29 11:05 57.49036 57.87634 34632 ft 419 kts 291°
2026-04-29 11:05 57.50442 57.82862 34810 ft 421 kts 291°
2026-04-29 11:06 57.51846 57.78078 35016 ft 421 kts 291°
2026-04-29 11:06 57.53246 57.73291 35214 ft 421 kts 291°
2026-04-29 11:06 57.54648 57.68493 35435 ft 422 kts 291°
2026-04-29 11:06 57.56053 57.63687 35632 ft 422 kts 291°
2026-04-29 11:07 57.57454 57.58885 35824 ft 422 kts 291°
2026-04-29 11:07 57.58842 57.54121 35965 ft 423 kts 291°
2026-04-29 11:07 57.60268 57.49220 36013 ft 427 kts 291°
2026-04-29 11:08 57.63101 57.39414 36007 ft 437 kts 291°
2026-04-29 11:08 57.66005 57.29346 36006 ft 441 kts 291°
2026-04-29 11:09 57.68918 57.19204 35998 ft 443 kts 291°
2026-04-29 11:09 57.71805 57.09099 36000 ft 443 kts 291°
2026-04-29 11:10 57.74709 56.98900 36000 ft 443 kts 291°
2026-04-29 11:10 57.77587 56.88747 36003 ft 444 kts 291°
2026-04-29 11:11 57.80466 56.78508 36005 ft 444 kts 291°
2026-04-29 11:11 57.83347 56.68249 36007 ft 443 kts 291°
2026-04-29 11:12 57.86204 56.58043 35992 ft 443 kts 291°
2026-04-29 11:12 57.89065 56.47789 35989 ft 443 kts 291°
2026-04-29 11:13 57.91916 56.37515 35991 ft 443 kts 291°
2026-04-29 11:13 57.94750 56.27204 35987 ft 442 kts 291°
2026-04-29 11:14 57.97569 56.16908 36001 ft 443 kts 291°
2026-04-29 11:14 58.00399 56.06561 35993 ft 443 kts 291°
2026-04-29 11:15 58.03197 55.96278 35986 ft 443 kts 291°
2026-04-29 11:15 58.06008 55.85907 35980 ft 443 kts 291°
2026-04-29 11:16 58.08813 55.75513 35974 ft 443 kts 291°
2026-04-29 11:16 58.11590 55.65184 35972 ft 444 kts 291°
2026-04-29 11:17 58.14382 55.54739 35987 ft 444 kts 291°
2026-04-29 11:17 58.17159 55.44286 35974 ft 444 kts 291°
2026-04-29 11:18 58.19927 55.33803 35975 ft 444 kts 291°
2026-04-29 11:18 58.22668 55.23387 35967 ft 444 kts 290°
2026-04-29 11:19 58.25421 55.12884 35977 ft 444 kts 290°
2026-04-29 11:19 58.28163 55.02360 35988 ft 444 kts 291°
2026-04-29 11:20 58.30896 54.91831 35952 ft 444 kts 291°
2026-04-29 11:20 58.33184 54.81020 35953 ft 438 kts 282°
2026-04-29 11:21 58.34985 54.69979 35952 ft 439 kts 282°
2026-04-29 11:21 58.36790 54.58871 35951 ft 439 kts 282°
2026-04-29 11:22 58.38595 54.47728 35950 ft 439 kts 282°
2026-04-29 11:22 58.40377 54.36652 35975 ft 439 kts 282°
2026-04-29 11:23 58.42167 54.25472 35965 ft 440 kts 282°
2026-04-29 11:23 58.43938 54.14286 35960 ft 440 kts 282°
2026-04-29 11:24 58.45700 54.03085 35966 ft 440 kts 282°
2026-04-29 11:24 58.47446 53.91940 35951 ft 440 kts 282°
2026-04-29 11:25 58.49203 53.80699 35951 ft 440 kts 282°
2026-04-29 11:25 58.50945 53.69469 35954 ft 440 kts 282°
2026-04-29 11:26 58.53530 53.52672 35957 ft 440 kts 282°
2026-04-29 11:26 58.55233 53.41418 35949 ft 439 kts 282°
2026-04-29 11:27 58.56934 53.30164 35939 ft 440 kts 282°
2026-04-29 11:27 58.58645 53.18897 35938 ft 440 kts 282°
2026-04-29 11:28 58.60332 53.07607 35931 ft 440 kts 282°
2026-04-29 11:28 58.61994 52.96340 35938 ft 441 kts 282°
2026-04-29 11:29 58.63658 52.85013 35950 ft 441 kts 282°
2026-04-29 11:29 58.65317 52.73671 35932 ft 441 kts 282°
2026-04-29 11:30 58.66966 52.62399 35928 ft 440 kts 282°
2026-04-29 11:30 58.68332 52.52959 35928 ft 440 kts 282°
2026-04-29 11:31 58.69962 52.41584 35914 ft 440 kts 281°
2026-04-29 11:31 58.71587 52.30234 35913 ft 440 kts 282°
2026-04-29 11:32 58.73200 52.18946 35930 ft 441 kts 282°
2026-04-29 11:32 58.74797 52.07525 35921 ft 441 kts 281°
2026-04-29 11:33 58.76400 51.96090 35921 ft 441 kts 282°
2026-04-29 11:33 58.77990 51.84735 35907 ft 441 kts 282°
2026-04-29 11:34 58.79577 51.73269 35904 ft 441 kts 281°
2026-04-29 11:34 58.81150 51.61816 35902 ft 441 kts 281°
2026-04-29 11:35 58.82710 51.50417 35897 ft 441 kts 281°
2026-04-29 11:35 58.84275 51.38931 35918 ft 442 kts 281°
2026-04-29 11:36 58.85820 51.27417 35892 ft 443 kts 281°
2026-04-29 11:36 58.87352 51.15878 35896 ft 442 kts 281°
2026-04-29 11:37 58.88868 51.04426 35881 ft 442 kts 281°
2026-04-29 11:37 58.90381 50.92869 35882 ft 442 kts 281°
2026-04-29 11:38 58.91872 50.81396 35880 ft 442 kts 281°
2026-04-29 11:38 58.93363 50.69837 35883 ft 442 kts 281°
2026-04-29 11:39 58.94888 50.58275 35879 ft 443 kts 283°
2026-04-29 11:39 58.96629 50.46850 35876 ft 444 kts 284°
2026-04-29 11:40 58.98448 50.35375 35878 ft 444 kts 284°
2026-04-29 11:40 59.00199 50.23893 35878 ft 443 kts 283°
2026-04-29 11:41 59.01870 50.12454 35870 ft 443 kts 283°
2026-04-29 11:41 59.03533 50.00921 35870 ft 443 kts 283°
2026-04-29 11:42 59.05206 49.89381 35862 ft 443 kts 283°
2026-04-29 11:42 59.06882 49.77835 35870 ft 443 kts 283°
2026-04-29 11:43 59.08537 49.66265 35869 ft 444 kts 283°
2026-04-29 11:43 59.10170 49.54730 35865 ft 444 kts 283°
2026-04-29 11:44 59.11798 49.43122 35864 ft 444 kts 283°
2026-04-29 11:44 59.13428 49.31491 35874 ft 444 kts 283°
2026-04-29 11:45 59.15054 49.19863 35870 ft 445 kts 283°
2026-04-29 11:45 59.16652 49.08293 35872 ft 445 kts 283°
2026-04-29 11:46 59.18247 48.96633 35860 ft 444 kts 283°
2026-04-29 11:46 59.19822 48.85028 35860 ft 444 kts 283°
2026-04-29 11:47 59.21324 48.73330 35851 ft 444 kts 281°
2026-04-29 11:47 59.22583 48.61531 35850 ft 443 kts 279°
2026-04-29 11:48 59.23769 48.49697 35855 ft 444 kts 279°
2026-04-29 11:48 59.24983 48.37858 35848 ft 444 kts 280°
2026-04-29 11:49 59.26214 48.26083 35847 ft 444 kts 280°
2026-04-29 11:49 59.27449 48.14224 35848 ft 444 kts 280°
2026-04-29 11:50 59.28652 48.02438 35842 ft 444 kts 279°
2026-04-29 11:50 59.29853 47.90543 35847 ft 445 kts 279°
2026-04-29 11:51 59.31051 47.78646 35854 ft 445 kts 279°
2026-04-29 11:51 59.32219 47.66806 35851 ft 445 kts 279°
2026-04-29 11:52 59.33379 47.54888 35855 ft 445 kts 279°
2026-04-29 11:52 59.34534 47.42956 35856 ft 445 kts 279°
2026-04-29 11:53 59.35677 47.31041 35854 ft 445 kts 279°
2026-04-29 11:53 59.36818 47.19103 35859 ft 445 kts 279°
2026-04-29 11:54 59.37935 47.07239 35862 ft 445 kts 279°
2026-04-29 11:54 59.39049 46.95291 35863 ft 445 kts 279°
2026-04-29 11:55 59.40151 46.83316 35866 ft 445 kts 279°
2026-04-29 11:55 59.41234 46.71429 35868 ft 444 kts 279°
2026-04-29 11:56 59.42315 46.59464 35874 ft 445 kts 279°
2026-04-29 11:56 59.43383 46.47497 35876 ft 444 kts 278°
2026-04-29 11:57 59.44437 46.35522 35870 ft 445 kts 278°
2026-04-29 11:57 59.45477 46.23603 35889 ft 444 kts 278°
2026-04-29 11:58 59.46516 46.11593 35883 ft 444 kts 278°
2026-04-29 11:58 59.47552 45.99606 35881 ft 444 kts 278°
2026-04-29 11:59 59.48568 45.87612 35883 ft 444 kts 278°
2026-04-29 11:59 59.49562 45.75614 35883 ft 443 kts 278°
2026-04-29 12:00 59.50540 45.63673 35888 ft 443 kts 278°
2026-04-29 12:00 59.51520 45.51646 35896 ft 444 kts 278°
2026-04-29 12:01 59.52400 45.39676 35896 ft 444 kts 276°
2026-04-29 12:01 59.53123 45.27600 35903 ft 443 kts 275°
2026-04-29 12:02 59.53824 45.15520 35898 ft 443 kts 276°
2026-04-29 12:02 59.54545 45.03453 35903 ft 443 kts 276°
2026-04-29 12:03 59.55270 44.91450 35912 ft 443 kts 276°
2026-04-29 12:03 59.55985 44.79372 35911 ft 442 kts 276°
2026-04-29 12:04 59.56724 44.67323 35924 ft 442 kts 277°
2026-04-29 12:04 59.57596 44.55378 35914 ft 442 kts 278°
2026-04-29 12:05 59.58501 44.43359 35922 ft 442 kts 277°
2026-04-29 12:05 59.59364 44.31337 35924 ft 442 kts 277°
2026-04-29 12:06 59.60181 44.19286 35927 ft 442 kts 277°
2026-04-29 12:06 59.60985 44.07245 35940 ft 442 kts 277°
2026-04-29 12:07 59.61796 43.95269 35943 ft 442 kts 277°
2026-04-29 12:07 59.62604 43.83207 35947 ft 442 kts 277°
2026-04-29 12:08 59.63392 43.71129 35949 ft 442 kts 277°
2026-04-29 12:08 59.64159 43.59126 35953 ft 443 kts 277°
2026-04-29 12:09 59.64921 43.47041 35948 ft 443 kts 276°
2026-04-29 12:09 59.65672 43.34948 35959 ft 442 kts 276°
2026-04-29 12:10 59.66413 43.22858 35961 ft 442 kts 276°
2026-04-29 12:10 59.67148 43.10781 35964 ft 442 kts 276°
2026-04-29 12:11 59.67866 42.98695 35966 ft 442 kts 276°
2026-04-29 12:11 59.68570 42.86595 35970 ft 442 kts 276°
2026-04-29 12:12 59.69262 42.74576 35966 ft 442 kts 276°
2026-04-29 12:12 59.69945 42.62482 35958 ft 441 kts 276°
2026-04-29 12:13 59.70601 42.50387 35973 ft 441 kts 276°
2026-04-29 12:13 59.71232 42.38288 35967 ft 442 kts 275°
2026-04-29 12:14 59.71847 42.26167 35975 ft 442 kts 275°
2026-04-29 12:14 59.72454 42.14030 35991 ft 442 kts 275°
2026-04-29 12:15 59.73053 42.01892 35976 ft 442 kts 275°
2026-04-29 12:15 59.73639 41.89762 35983 ft 441 kts 275°
2026-04-29 12:16 59.74210 41.77696 35988 ft 441 kts 275°
2026-04-29 12:16 59.74774 41.65546 36001 ft 442 kts 275°
2026-04-29 12:17 59.75313 41.53394 36004 ft 442 kts 275°
2026-04-29 12:17 59.75788 41.41230 36004 ft 442 kts 274°
2026-04-29 12:18 59.76235 41.29155 36010 ft 441 kts 274°
2026-04-29 12:18 59.76606 41.19042 36008 ft 441 kts 274°
2026-04-29 12:19 59.77050 41.06889 36013 ft 441 kts 274°
2026-04-29 12:19 59.77488 40.94733 35989 ft 441 kts 274°
2026-04-29 12:20 59.77909 40.82578 36006 ft 440 kts 274°
2026-04-29 12:20 59.78318 40.70458 36008 ft 440 kts 274°
2026-04-29 12:21 59.78715 40.58364 36010 ft 442 kts 274°
2026-04-29 12:21 59.79103 40.46184 36026 ft 441 kts 274°
2026-04-29 12:22 59.79476 40.34006 36021 ft 441 kts 274°
2026-04-29 12:22 59.79842 40.21847 36035 ft 441 kts 274°
2026-04-29 12:23 59.80131 40.09662 36023 ft 441 kts 272°
2026-04-29 12:23 59.80214 39.97541 36031 ft 441 kts 271°
2026-04-29 12:24 59.80246 39.85340 36016 ft 441 kts 271°
2026-04-29 12:24 59.80301 39.73190 36028 ft 441 kts 272°
2026-04-29 12:25 59.80378 39.61014 36029 ft 441 kts 272°
2026-04-29 12:26 59.80485 39.42731 36039 ft 441 kts 271°
2026-04-29 12:26 59.80523 39.30515 36033 ft 442 kts 271°
2026-04-29 12:27 59.80500 39.18385 36041 ft 442 kts 270°
2026-04-29 12:27 59.80450 39.06174 36041 ft 442 kts 270°
2026-04-29 12:28 59.80398 38.93934 36044 ft 443 kts 271°
2026-04-29 12:28 59.80342 38.81701 36032 ft 442 kts 270°
2026-04-29 12:29 59.80279 38.69461 36037 ft 442 kts 270°
2026-04-29 12:29 59.80203 38.57297 36045 ft 443 kts 271°
2026-04-29 12:30 59.80115 38.45065 36049 ft 442 kts 270°
2026-04-29 12:30 59.80011 38.32818 36051 ft 442 kts 270°
2026-04-29 12:31 59.79890 38.20598 36049 ft 442 kts 270°
2026-04-29 12:31 59.79768 38.08452 36042 ft 442 kts 270°
2026-04-29 12:32 59.79638 37.96212 36044 ft 443 kts 271°
2026-04-29 12:32 59.79495 37.83958 36061 ft 444 kts 270°
2026-04-29 12:33 59.79332 37.71689 36052 ft 444 kts 270°
2026-04-29 12:33 59.79164 37.59486 36060 ft 444 kts 270°
2026-04-29 12:34 59.78986 37.47216 36077 ft 444 kts 269°
2026-04-29 12:34 59.78793 37.34918 36076 ft 445 kts 270°
2026-04-29 12:35 59.78584 37.22686 36072 ft 445 kts 270°
2026-04-29 12:35 59.78365 37.10393 36086 ft 445 kts 270°
2026-04-29 12:36 59.78126 36.98100 36081 ft 445 kts 269°
2026-04-29 12:36 59.77874 36.85872 36082 ft 446 kts 269°
2026-04-29 12:37 59.77616 36.73559 36091 ft 446 kts 269°
2026-04-29 12:37 59.77358 36.61261 36094 ft 446 kts 269°
2026-04-29 12:38 59.77092 36.48934 36098 ft 446 kts 269°
2026-04-29 12:38 59.76813 36.36631 36106 ft 446 kts 269°
2026-04-29 12:39 59.76511 36.24313 36106 ft 446 kts 269°
2026-04-29 12:39 59.76200 36.12095 36111 ft 446 kts 269°
2026-04-29 12:40 59.75878 35.99769 36117 ft 447 kts 269°
2026-04-29 12:40 59.75554 35.87438 36121 ft 447 kts 269°
2026-04-29 12:41 59.75217 35.75199 36120 ft 447 kts 269°
2026-04-29 12:41 59.74856 35.62884 36113 ft 447 kts 269°
2026-04-29 12:42 59.74482 35.50562 36122 ft 448 kts 269°
2026-04-29 12:42 59.74103 35.38295 36123 ft 448 kts 269°
2026-04-29 12:43 59.73924 35.25950 36121 ft 447 kts 272°
2026-04-29 12:43 59.73965 35.13612 36126 ft 446 kts 273°
2026-04-29 12:44 59.73994 35.01372 36138 ft 447 kts 272°
2026-04-29 12:44 59.73931 34.89022 36129 ft 447 kts 271°
2026-04-29 12:45 59.73825 34.76755 36115 ft 447 kts 271°
2026-04-29 12:45 59.73723 34.64407 36115 ft 448 kts 272°
2026-04-29 12:46 59.73620 34.52037 36124 ft 448 kts 272°
2026-04-29 12:46 59.73496 34.39659 36128 ft 449 kts 271°
2026-04-29 12:47 59.73364 34.27269 36136 ft 449 kts 271°
2026-04-29 12:47 59.73219 34.14973 36148 ft 449 kts 271°
2026-04-29 12:48 59.73058 34.02583 36151 ft 449 kts 271°
2026-04-29 12:48 59.72891 33.90196 36154 ft 449 kts 271°
2026-04-29 12:49 59.72714 33.77881 36158 ft 449 kts 271°
2026-04-29 12:49 59.72529 33.65492 36158 ft 449 kts 271°
2026-04-29 12:50 59.72331 33.53109 36169 ft 449 kts 271°
2026-04-29 12:50 59.72117 33.40700 36163 ft 450 kts 271°
2026-04-29 12:51 59.71889 33.28383 36178 ft 450 kts 271°
2026-04-29 12:51 59.71649 33.15964 36163 ft 450 kts 271°
2026-04-29 12:52 59.71405 33.03592 36167 ft 450 kts 271°
2026-04-29 12:52 59.71150 32.91180 36171 ft 450 kts 271°
2026-04-29 12:53 59.70876 32.78781 36189 ft 451 kts 270°
2026-04-29 12:53 59.70591 32.66386 36190 ft 450 kts 270°
2026-04-29 12:54 59.70300 32.54056 36195 ft 451 kts 270°
2026-04-29 12:54 59.69997 32.41644 36178 ft 451 kts 270°
2026-04-29 12:55 59.69671 32.29222 36176 ft 451 kts 270°
2026-04-29 12:55 59.69334 32.16811 36187 ft 451 kts 270°
2026-04-29 12:56 59.68994 32.04470 36192 ft 451 kts 270°
2026-04-29 12:56 59.68661 31.92057 36200 ft 451 kts 271°
2026-04-29 12:57 59.68563 31.79640 36203 ft 450 kts 274°
2026-04-29 12:57 59.68563 31.67232 36208 ft 450 kts 273°
2026-04-29 12:58 59.68511 31.54823 36203 ft 451 kts 273°
2026-04-29 12:58 59.68402 31.42494 36213 ft 451 kts 272°
2026-04-29 12:59 59.68271 31.30050 36218 ft 452 kts 272°
2026-04-29 12:59 59.68173 31.17611 36216 ft 450 kts 277°
2026-04-29 13:00 59.69190 31.05505 36213 ft 445 kts 285°
2026-04-29 13:00 59.70452 30.93492 36225 ft 444 kts 285°
2026-04-29 13:01 59.71683 30.81555 36216 ft 445 kts 285°
2026-04-29 13:01 59.72907 30.69502 36219 ft 444 kts 285°
2026-04-29 13:02 59.74115 30.57546 36226 ft 444 kts 285°
2026-04-29 13:02 59.75321 30.45511 36230 ft 444 kts 285°
2026-04-29 13:03 59.76514 30.33451 36236 ft 445 kts 285°
2026-04-29 13:03 59.77685 30.21462 36227 ft 444 kts 285°
2026-04-29 13:04 59.78856 30.09389 36242 ft 445 kts 285°
2026-04-29 13:04 59.79825 29.99346 36237 ft 445 kts 285°
2026-04-29 13:05 59.80977 29.87269 36247 ft 445 kts 285°
2026-04-29 13:05 59.82116 29.75181 36250 ft 445 kts 285°
2026-04-29 13:06 59.83254 29.63065 36260 ft 445 kts 285°
2026-04-29 13:06 59.84365 29.51026 36238 ft 445 kts 285°
2026-04-29 13:07 59.85473 29.38900 36250 ft 445 kts 285°
2026-04-29 13:07 59.86566 29.26766 36256 ft 445 kts 285°
2026-04-29 13:08 59.87650 29.14622 36259 ft 446 kts 285°
2026-04-29 13:08 59.88725 29.02461 36270 ft 445 kts 285°
2026-04-29 13:09 59.89777 28.90354 36274 ft 446 kts 285°
2026-04-29 13:09 59.90833 28.78137 36266 ft 446 kts 285°
2026-04-29 13:10 59.91885 28.65923 36275 ft 447 kts 285°
2026-04-29 13:10 59.92918 28.53697 36290 ft 447 kts 285°
2026-04-29 13:11 59.93935 28.41519 36292 ft 447 kts 285°
2026-04-29 13:11 59.94948 28.29223 36303 ft 447 kts 285°
2026-04-29 13:12 59.95941 28.17030 36267 ft 447 kts 285°
2026-04-29 13:12 59.96926 28.04796 36289 ft 446 kts 285°
2026-04-29 13:13 59.97907 27.92536 36295 ft 446 kts 285°
2026-04-29 13:13 59.98874 27.80282 36302 ft 446 kts 285°
2026-04-29 13:14 59.99818 27.68050 36301 ft 446 kts 285°
2026-04-29 13:14 60.00753 27.55792 36303 ft 446 kts 285°
2026-04-29 13:15 60.01683 27.43615 36281 ft 446 kts 285°
2026-04-29 13:15 60.02600 27.31328 36303 ft 447 kts 285°
2026-04-29 13:16 60.03509 27.19036 36317 ft 446 kts 285°
2026-04-29 13:16 60.04405 27.06749 36318 ft 446 kts 285°
2026-04-29 13:17 60.04536 26.94206 36302 ft 461 kts 268°
2026-04-29 13:17 60.03205 26.81640 36303 ft 465 kts 264°
2026-04-29 13:18 60.01809 26.68984 36314 ft 465 kts 264°
2026-04-29 13:18 60.00416 26.56405 36319 ft 466 kts 264°
2026-04-29 13:19 59.98994 26.43745 36320 ft 466 kts 264°
2026-04-29 13:19 59.97567 26.31084 36321 ft 466 kts 264°
2026-04-29 13:20 59.96141 26.18506 36327 ft 466 kts 264°
2026-04-29 13:20 59.94688 26.05895 36326 ft 466 kts 264°
2026-04-29 13:21 59.93225 25.93294 36281 ft 466 kts 264°
2026-04-29 13:21 59.91751 25.80694 36298 ft 466 kts 264°
2026-04-29 13:22 59.90272 25.68164 36313 ft 468 kts 264°
2026-04-29 13:22 59.88767 25.55526 36331 ft 468 kts 264°
2026-04-29 13:23 59.87250 25.42925 36337 ft 468 kts 263°
2026-04-29 13:23 59.85728 25.30416 36338 ft 468 kts 263°
2026-04-29 13:24 59.84188 25.17837 36347 ft 467 kts 263°
2026-04-29 13:24 59.82635 25.05245 36289 ft 467 kts 263°
2026-04-29 13:25 59.81077 24.92710 36301 ft 468 kts 263°
2026-04-29 13:25 59.78715 24.73952 36323 ft 469 kts 263°
2026-04-29 13:26 59.77109 24.61383 36333 ft 469 kts 263°
2026-04-29 13:26 59.75493 24.48787 36333 ft 470 kts 263°
2026-04-29 13:27 59.73801 24.36339 36354 ft 472 kts 261°
2026-04-29 13:27 59.71881 24.23854 36311 ft 473 kts 260°
2026-04-29 13:28 59.69921 24.11404 36332 ft 473 kts 260°
2026-04-29 13:28 59.67988 23.98954 36332 ft 473 kts 261°
2026-04-29 13:29 59.66071 23.86570 36333 ft 474 kts 260°
2026-04-29 13:29 59.64133 23.74086 36338 ft 474 kts 260°
2026-04-29 13:30 59.62182 23.61635 36341 ft 474 kts 260°
2026-04-29 13:30 59.60209 23.49175 36345 ft 475 kts 260°
2026-04-29 13:31 59.58228 23.36733 36319 ft 475 kts 261°
2026-04-29 13:31 59.56233 23.24281 36342 ft 475 kts 260°
2026-04-29 13:32 59.53896 23.11983 36360 ft 484 kts 252°
2026-04-29 13:32 59.51032 23.00076 36374 ft 484 kts 252°
2026-04-29 13:33 59.48135 22.88097 36381 ft 484 kts 252°
2026-04-29 13:33 59.45239 22.76137 36388 ft 484 kts 251°
2026-04-29 13:34 59.42323 22.64176 36391 ft 484 kts 251°
2026-04-29 13:34 59.39410 22.52329 36341 ft 484 kts 252°
2026-04-29 13:35 59.36466 22.40407 36364 ft 484 kts 251°
2026-04-29 13:35 59.33528 22.28505 36381 ft 485 kts 251°
2026-04-29 13:36 59.30574 22.16635 36405 ft 485 kts 251°
2026-04-29 13:36 59.27616 22.04837 36416 ft 486 kts 251°
2026-04-29 13:37 59.24625 21.92977 36416 ft 485 kts 251°
2026-04-29 13:37 59.21626 21.81141 36419 ft 486 kts 251°
2026-04-29 13:38 59.18614 21.69313 36409 ft 486 kts 251°
2026-04-29 13:38 59.15611 21.57589 36380 ft 486 kts 251°
2026-04-29 13:39 59.12573 21.45801 36401 ft 487 kts 251°
2026-04-29 13:39 59.09530 21.34022 36420 ft 487 kts 251°
2026-04-29 13:40 59.05896 21.22774 36424 ft 501 kts 233°
2026-04-29 13:40 59.03349 21.18086 36425 ft 508 kts 221°
2026-04-29 13:40 59.00375 21.14284 36417 ft 512 kts 210°
2026-04-29 13:41 58.97095 21.11540 36412 ft 514 kts 199°
2026-04-29 13:41 58.93737 21.09372 36409 ft 515 kts 199°
2026-04-29 13:41 58.86917 21.05014 36409 ft 516 kts 199°
2026-04-29 13:42 58.80085 21.00660 36416 ft 517 kts 199°
2026-04-29 13:42 58.73286 20.96333 36421 ft 517 kts 199°
2026-04-29 13:43 58.66439 20.91998 36426 ft 517 kts 199°
2026-04-29 13:43 58.59597 20.87678 36429 ft 517 kts 199°
2026-04-29 13:44 58.52747 20.83321 36439 ft 517 kts 199°
2026-04-29 13:44 58.45906 20.79024 36430 ft 517 kts 198°
2026-04-29 13:45 58.39076 20.74794 36428 ft 518 kts 198°
2026-04-29 13:45 58.32215 20.70548 36443 ft 518 kts 198°
2026-04-29 13:46 58.25386 20.66315 36453 ft 519 kts 198°
2026-04-29 13:46 58.18513 20.62061 36449 ft 519 kts 198°
2026-04-29 13:47 58.11641 20.57831 36456 ft 518 kts 198°
2026-04-29 13:47 58.04767 20.53640 36456 ft 519 kts 198°
2026-04-29 13:48 57.97925 20.49478 36465 ft 520 kts 198°
2026-04-29 13:48 57.91043 20.45300 36464 ft 519 kts 197°
2026-04-29 13:49 57.84157 20.41136 36462 ft 518 kts 197°
2026-04-29 13:49 57.77322 20.37036 36463 ft 518 kts 197°
2026-04-29 13:50 57.70481 20.32954 36458 ft 517 kts 197°
2026-04-29 13:50 57.64740 20.29533 36450 ft 516 kts 197°
2026-04-29 13:51 57.57892 20.25463 36456 ft 516 kts 197°
2026-04-29 13:51 57.51043 20.21403 36484 ft 516 kts 197°
2026-04-29 13:52 57.44259 20.17392 36445 ft 513 kts 197°
2026-04-29 13:52 57.37436 20.13375 36437 ft 514 kts 196°
2026-04-29 13:53 57.30604 20.09376 36444 ft 514 kts 196°
2026-04-29 13:53 57.23772 20.05389 36449 ft 514 kts 196°
2026-04-29 13:54 57.16932 20.01413 36456 ft 515 kts 196°
2026-04-29 13:54 57.10134 19.97490 36459 ft 515 kts 196°
2026-04-29 13:55 57.03281 19.93683 36464 ft 513 kts 191°
2026-04-29 13:55 56.96237 19.92476 36460 ft 505 kts 172°
2026-04-29 13:56 56.89274 19.93777 36459 ft 502 kts 169°
2026-04-29 13:56 56.82359 19.95148 36088 ft 504 kts 168°
2026-04-29 13:57 56.78813 19.95855 34882 ft 518 kts 167°
2026-04-29 13:57 56.75208 19.96567 33994 ft 522 kts 167°
2026-04-29 13:57 56.71587 19.97270 33411 ft 519 kts 167°
2026-04-29 13:57 56.68028 19.97944 33146 ft 508 kts 167°
2026-04-29 13:58 56.64539 19.98602 32867 ft 500 kts 167°
2026-04-29 13:58 56.61094 19.99262 32596 ft 496 kts 167°
2026-04-29 13:58 56.57666 19.99928 32342 ft 494 kts 166°
2026-04-29 13:58 56.54298 20.00583 32093 ft 491 kts 166°
2026-04-29 13:59 56.50889 20.01247 31827 ft 490 kts 166°
2026-04-29 13:59 56.47495 20.01911 31623 ft 489 kts 166°
2026-04-29 13:59 56.44113 20.02573 31372 ft 488 kts 166°
2026-04-29 13:59 56.40737 20.03230 31117 ft 487 kts 166°
2026-04-29 14:00 56.37407 20.03869 30862 ft 486 kts 166°
2026-04-29 14:00 56.34046 20.04506 30624 ft 485 kts 166°
2026-04-29 14:00 56.30688 20.05137 30349 ft 484 kts 166°
2026-04-29 14:00 56.27432 20.06269 30074 ft 468 kts 154°
2026-04-29 14:01 56.24310 20.07888 29778 ft 464 kts 154°
2026-04-29 14:01 56.21220 20.09514 29495 ft 461 kts 154°
2026-04-29 14:01 56.18157 20.11138 29212 ft 458 kts 154°
2026-04-29 14:01 56.15098 20.12761 28928 ft 456 kts 154°
2026-04-29 14:02 56.12107 20.14343 28656 ft 453 kts 154°
2026-04-29 14:02 56.09091 20.15931 28387 ft 451 kts 154°
2026-04-29 14:02 56.06081 20.17513 28109 ft 448 kts 154°
2026-04-29 14:02 56.03097 20.19074 27840 ft 445 kts 155°
2026-04-29 14:03 56.00131 20.20624 27582 ft 444 kts 155°
2026-04-29 14:03 55.97176 20.22164 27331 ft 441 kts 155°
2026-04-29 14:03 55.94197 20.23720 26493 ft 448 kts 156°
2026-04-29 14:03 55.91205 20.25284 25923 ft 447 kts 156°
2026-04-29 14:04 55.88221 20.26830 25450 ft 444 kts 157°
2026-04-29 14:04 55.85258 20.28360 25015 ft 440 kts 157°
2026-04-29 14:04 55.82337 20.29869 24481 ft 433 kts 157°
2026-04-29 14:04 55.79504 20.31331 23671 ft 427 kts 158°
2026-04-29 14:05 55.76670 20.32795 22821 ft 420 kts 158°
2026-04-29 14:05 55.73883 20.34234 21991 ft 414 kts 159°
2026-04-29 14:05 55.71134 20.35646 21179 ft 407 kts 159°
2026-04-29 14:05 55.68426 20.37035 20386 ft 400 kts 159°
2026-04-29 14:06 55.65773 20.38389 19586 ft 393 kts 159°
2026-04-29 14:06 55.63167 20.39718 18901 ft 384 kts 159°
2026-04-29 14:06 55.60654 20.40997 18441 ft 368 kts 159°
2026-04-29 14:06 55.58241 20.42222 17983 ft 354 kts 159°
2026-04-29 14:07 55.55916 20.43403 17548 ft 341 kts 159°
2026-04-29 14:07 55.53704 20.44532 17148 ft 329 kts 159°
2026-04-29 14:07 55.51529 20.45646 16748 ft 325 kts 159°
2026-04-29 14:07 55.49363 20.46759 16306 ft 323 kts 160°
2026-04-29 14:08 55.47202 20.47867 15905 ft 321 kts 160°
2026-04-29 14:08 55.45047 20.48964 15495 ft 323 kts 160°
2026-04-29 14:08 55.42886 20.50063 15093 ft 323 kts 160°
2026-04-29 14:08 55.40716 20.51169 14690 ft 324 kts 160°
2026-04-29 14:09 55.38540 20.52277 14270 ft 326 kts 161°
2026-04-29 14:09 55.36383 20.53367 13827 ft 326 kts 161°
2026-04-29 14:09 55.34205 20.54459 13417 ft 325 kts 162°
2026-04-29 14:09 55.32038 20.55547 13004 ft 323 kts 161°
2026-04-29 14:10 55.29965 20.57004 12627 ft 319 kts 151°
2026-04-29 14:10 55.27979 20.58723 12257 ft 317 kts 151°
2026-04-29 14:10 55.26001 20.60418 11885 ft 315 kts 152°
2026-04-29 14:10 55.24051 20.62076 11718 ft 307 kts 152°
2026-04-29 14:11 55.22161 20.63680 11585 ft 297 kts 152°
2026-04-29 14:11 55.20326 20.65214 11454 ft 289 kts 155°
2026-04-29 14:11 55.18409 20.66111 11321 ft 282 kts 173°
2026-04-29 14:11 55.16470 20.66079 11156 ft 276 kts 186°
2026-04-29 14:12 55.14576 20.65728 10803 ft 277 kts 186°
2026-04-29 14:12 55.12679 20.65383 10446 ft 270 kts 186°
2026-04-29 14:12 55.10834 20.65051 10076 ft 264 kts 185°
2026-04-29 14:12 55.08997 20.64724 9747 ft 264 kts 185°
2026-04-29 14:13 55.07166 20.64401 9449 ft 263 kts 185°
2026-04-29 14:13 55.05357 20.64083 9141 ft 265 kts 185°
2026-04-29 14:13 55.03530 20.63712 8838 ft 264 kts 192°
2026-04-29 14:13 55.01831 20.62561 8528 ft 261 kts 214°
2026-04-29 14:14 55.00469 20.60521 8232 ft 257 kts 234°
2026-04-29 14:14 54.99570 20.57884 7929 ft 251 kts 249°
2026-04-29 14:14 54.98856 20.55091 7651 ft 252 kts 250°
2026-04-29 14:14 54.98138 20.52313 7358 ft 250 kts 248°
2026-04-29 14:15 54.97433 20.49601 7069 ft 249 kts 248°
2026-04-29 14:15 54.96719 20.46858 6781 ft 247 kts 249°
2026-04-29 14:15 54.96012 20.44144 6468 ft 245 kts 248°
2026-04-29 14:15 54.95309 20.41445 6182 ft 244 kts 250°
2026-04-29 14:16 54.94610 20.38758 5894 ft 243 kts 249°
2026-04-29 14:16 54.93912 20.36091 5604 ft 241 kts 247°
2026-04-29 14:16 54.93217 20.33439 5317 ft 240 kts 249°
2026-04-29 14:16 54.92527 20.30800 5029 ft 239 kts 248°
2026-04-29 14:17 54.91835 20.28216 4725 ft 239 kts 244°
2026-04-29 14:17 54.90654 20.26141 4302 ft 246 kts 209°
2026-04-29 14:17 54.89008 20.25528 3793 ft 245 kts 171°
2026-04-29 14:17 54.87446 20.26531 3414 ft 241 kts 149°
2026-04-29 14:18 54.85951 20.27834 3229 ft 233 kts 153°
2026-04-29 14:18 54.84528 20.28937 3144 ft 216 kts 155°
2026-04-29 14:18 54.83211 20.30098 3061 ft 209 kts 136°
2026-04-29 14:18 54.82451 20.32132 2966 ft 199 kts 98°
2026-04-29 14:19 54.82521 20.34423 2757 ft 189 kts 65°
2026-04-29 14:19 54.83047 20.36473 2550 ft 181 kts 59°
2026-04-29 14:19 54.83550 20.38365 2453 ft 163 kts 59°
2026-04-29 14:19 54.84003 20.40085 2290 ft 150 kts 60°
2026-04-29 14:20 54.84417 20.41664 2131 ft 140 kts 58°
2026-04-29 14:20 54.84808 20.43153 1943 ft 136 kts 57°
2026-04-29 14:20 54.85199 20.44644 1767 ft 135 kts 56°
2026-04-29 14:20 54.85590 20.46137 1559 ft 136 kts 58°
2026-04-29 14:21 54.85978 20.47624 1380 ft 134 kts 59°
2026-04-29 14:21 54.86360 20.49087 1178 ft 134 kts 58°
2026-04-29 14:21 54.86746 20.50566 981 ft 134 kts 57°
2026-04-29 14:21 54.87130 20.52040 781 ft 134 kts 61°
2026-04-29 14:22 54.87515 20.53519 617 ft 136 kts 57°
2026-04-29 14:22 54.87906 20.55022 414 ft 136 kts 62°
2026-04-29 14:22 54.88296 20.56525 200 ft 136 kts 59°
2026-04-29 14:22 54.88678 20.58001 29 ft 128 kts 59°
2026-04-29 14:23 54.88990 20.59166 25 ft 82 kts 66°
2026-04-29 14:23 54.89150 20.59801 22 ft 34 kts 65°
2026-04-29 14:23 54.89226 20.60077 21 ft 12 kts 53°
2026-04-29 14:23 54.89258 20.60171 24 ft 6 kts 121°
2026-04-29 14:24 54.89228 20.60118 23 ft 10 kts 255°
2026-04-29 14:24 54.89195 20.59975 20 ft 15 kts 245°
2026-04-29 14:24 54.89150 20.59800 23 ft 17 kts 246°
2026-04-29 14:24 54.89097 20.59595 25 ft 19 kts 246°
2026-04-29 14:25 54.89039 20.59371 27 ft 22 kts 244°
2026-04-29 14:25 54.88949 20.59160 25 ft 18 kts 221°
2026-04-29 14:25 54.88844 20.59058 30 ft 16 kts 206°
2026-04-29 14:25 54.88747 20.58973 26 ft 12 kts 208°
2026-04-29 14:26 54.88696 20.58853 26 ft 10 kts 248°
2026-04-29 14:26 54.88660 20.58749 26 ft 9 kts 198°
2026-04-29 14:26 54.88591 20.58792 27 ft 12 kts 154°
2026-04-29 14:26 54.88529 20.58825 27 ft 5 kts 193°
2026-04-29 14:27 54.88508 20.58758 27 ft 8 kts 250°
2026-04-29 14:27 54.88482 20.58648 27 ft 11 kts 245°
2026-04-29 14:27 54.88460 20.58569 27 ft 6 kts 239°
2026-04-29 14:28 54.88403 20.58583 27 ft 1 kts 155°
2026-04-29 14:28 54.88396 20.58589 27 ft 0 kts 154°